Lapse_Rate
2.3 2.3 2.9 2.9 2.8 2.6 2.7 2.6 2.2 2.2 2.5 2.5 2.2 1.9 1.6 1.4 1.1 0.8 0.9 1.2 1.5 2.2 2.6 3.0 3.4 3.8 5.4 7.5 6.9 5.3 4.9 5.5 6.1 5.7 7.1 7.5 6.9 6.3 6.5 6.5 6.6 6.5 6.5 6.9 6.6 7.0 6.5
2.8 2.6 2.7 2.7 2.5 2.5 2.4 2.4 2.1 2.1 2.2 2.3 2.1 1.8 1.3 1.1 1.0 0.7 0.7 0.8 1.3 1.8 1.9 2.6 3.6 3.9 6.1 6.6 6.0 5.3 4.8 4.9 5.4 6.2 8.2 7.5 7.0 6.7 6.6 6.5 6.5 6.4 6.5 6.7 6.8 6.8 7.0
2.9 2.9 2.8 2.8 2.4 2.2 2.1 2.0 1.9 1.8 2.0 1.9 1.6 1.3 1.0 0.8 0.8 0.5 0.7 0.8 1.1 1.1 1.6 2.0 3.5 6.2 7.3 6.9 6.0 5.7 5.7 4.9 5.3 5.2 6.6 6.4 6.1 6.6 6.7 6.5 7.0 6.9 6.5 6.5 6.3 6.4 6.5
3.3 3.3 3.3 3.2 3.2 3.0 2.9 2.6 2.2 2.1 2.2 2.1 1.9 1.4 1.1 0.8 0.6 0.4 0.3 -0.1 -0.4 0.2 0.9 2.2 4.2 7.1 7.0 5.4 5.5 5.9 5.6 7.0 6.7 6.7 5.9 5.9 6.6 7.1 6.8 6.9 6.8 6.5 6.5 6.5 6.5 6.4 6.4
3.6 3.6 3.3 3.0 3.1 3.2 3.1 2.8 2.6 2.4 2.3 2.1 1.9 1.6 1.4 1.2 1.1 0.5 0.3 -0.3 0.1 1.7 1.6 2.9 5.4 6.7 6.8 4.9 6.4 6.0 5.2 5.6 5.8 7.0 6.4 7.3 6.8 6.7 6.9 6.5 6.5 6.5 6.5 6.5 6.5 6.4 6.5
3.6 3.4 3.3 3.2 3.0 3.0 3.0 2.9 2.6 2.2 2.1 1.9 1.6 1.2 1.1 1.0 0.9 0.4 1.2 0.5 1.6 2.0 3.2 6.6 8.1 7.0 6.7 7.2 6.2 5.3 5.9 5.3 6.7 7.3 7.2 6.5 6.2 6.5 6.5 6.5 6.5 6.5 6.5 6.5 6.5 6.5 6.5
3.5 3.5 3.3 3.3 3.4 3.4 3.3 3.1 2.9 2.7 2.4 2.0 1.7 1.3 1.1 1.6 1.5 2.7 2.0 4.4 5.4 5.5 6.5 6.7 6.1 7.0 7.5 6.8 5.7 7.1 6.0 6.1 7.2 7.0 6.5 6.6 6.5 6.5 6.5 6.5 6.5 6.5 6.5 6.5 6.5 6.5 6.5
3.8 3.7 3.7 3.8 3.8 3.7 3.7 3.6 3.3 2.9 2.8 2.5 2.1 1.6 1.3 1.2 1.4 2.9 4.2 5.7 5.5 4.2 6.2 6.5 6.7 6.8 6.9 5.8 6.7 7.3 6.0 6.8 6.7 6.5 6.5 6.5 6.5 6.5 6.5 6.5 6.5 6.5 6.5 6.5 6.5 6.5 6.5
4.0 3.9 3.7 3.7 3.7 3.8 3.5 3.4 3.4 3.5 3.3 2.9 2.7 2.6 2.0 1.4 1.5 3.8 5.1 4.8 4.8 6.6 6.8 6.9 7.7 7.6 7.3 6.3 7.0 6.5 5.5 6.7 6.5 6.5 6.5 6.5 6.5 6.5 6.5 6.5 6.5 6.5 6.5 6.5 6.5 6.5 6.5
3.2 3.3 3.4 3.5 3.7 3.6 3.5 3.5 3.5 3.4 3.1 3.4 2.9 3.0 2.5 1.4 5.0 5.8 5.9 4.8 4.8 6.4 6.5 6.5 6.7 6.8 6.7 6.7 6.6 6.1 5.5 5.7 6.6 6.5 6.5 6.5 6.5 6.5 6.5 6.5 6.5 6.5 6.5 6.5 6.5 6.5 6.5
2.8 2.7 2.6 2.7 3.1 3.4 3.4 3.6 3.7 3.7 3.5 3.1 2.9 3.4 2.9 2.6 3.7 6.1 5.3 5.3 5.1 5.5 6.5 6.5 6.7 6.1 7.4 6.9 6.3 6.3 5.2 6.5 6.5 6.5 6.5 6.5 6.5 6.5 6.5 6.5 6.5 6.5 6.5 6.5 6.5 6.5 6.5
2.1 2.3 2.6 2.8 3.1 3.4 3.6 3.7 3.8 3.8 3.6 3.2 3.3 3.4 3.2 5.9 5.4 6.3 5.4 5.0 4.7 6.5 6.5 6.5 6.7 6.5 6.5 6.7 6.7 6.8 7.0 6.4 6.6 6.5 6.5 6.5 6.7 6.5 6.5 6.5 6.5 6.5 6.5 6.5 6.5 6.5 6.5
2.3 2.6 2.5 2.9 3.3 3.3 3.4 3.7 3.9 4.2 3.9 3.5 3.2 2.9 2.9 4.2 6.8 5.5 5.7 5.5 6.5 6.5 6.5 6.5 6.5 6.5 6.5 6.5 6.5 6.5 6.5 6.5 6.5 6.5 6.5 6.5 6.5 6.5 6.6 6.5 6.5 6.5 6.5 6.5 6.5 6.5 6.5
2.7 2.9 3.2 3.5 3.8 3.7 3.8 3.7 3.9 4.2 4.3 4.0 3.3 3.0 4.3 6.3 6.2 6.0 5.9 6.5 6.5 6.5 6.5 6.5 6.5 6.5 6.5 6.5 6.5 6.5 6.5 6.5 6.5 6.5 6.5 6.5 6.5 6.5 6.5 6.5 6.5 6.5 6.5 6.5 6.5 6.5 6.5
3.6 3.7 3.8 4.3 4.2 4.2 4.2 4.3 4.6 4.6 4.6 4.5 4.0 5.5 6.0 5.9 6.1 5.8 6.7 6.5 6.5 6.5 6.5 6.5 6.5 6.5 6.5 6.5 6.5 6.5 6.5 6.5 6.5 6.5 6.5 6.5 6.5 6.5 6.5 6.5 6.5 6.5 6.5 6.5 6.5 6.5 6.5
3.8 4.0 4.4 4.8 5.3 5.1 5.0 5.4 5.6 5.1 4.7 5.4 6.0 5.9 6.8 5.5 5.8 5.6 6.5 6.5 6.5 6.4 6.5 6.5 6.5 6.5 6.5 6.5 6.5 6.5 6.5 6.5 6.5 6.5 6.4 6.5 6.5 6.5 6.5 6.6 6.5 6.5 6.5 6.5 6.5 6.5 6.5
4.8 5.9 6.6 7.1 6.8 6.2 5.6 6.5 7.1 6.6 5.3 5.7 7.0 7.6 4.8 5.4 5.4 6.6 6.5 6.5 6.5 6.3 6.7 6.5 6.5 6.5 6.5 6.5 6.5 6.5 6.5 6.5 6.5 6.5 6.5 6.5 6.5 6.5 6.5 6.5 6.5 6.5 6.5 6.5 6.5 6.5 6.5
5.4 6.5 8.0 8.1 7.2 7.8 8.4 8.3 8.4 7.8 7.7 7.2 7.9 6.5 5.7 5.7 6.5 5.8 6.5 6.5 6.3 6.5 6.4 6.5 6.5 6.5 6.5 6.5 6.5 6.5 6.5 6.5 6.5 6.5 6.5 6.5 6.5 6.5 6.5 6.5 6.5 6.5 6.5 6.5 6.5 6.5 6.5
4.9 5.3 6.3 7.5 8.4 8.6 9.0 8.6 8.5 8.6 8.2 6.8 7.4 7.4 6.9 6.7 6.5 6.5 6.4 6.5 6.3 6.5 6.5 6.5 6.5 6.5 6.5 6.5 6.5 6.5 6.5 6.5 6.6 6.5 6.5 6.5 6.5 6.5 6.5 6.5 6.5 6.5 6.5 6.5 6.5 6.5 6.5
4.9 5.5 6.6 8.2 8.1 8.2 8.5 8.3 8.7 8.7 8.2 6.9 6.9 6.5 6.5 6.5 6.6 6.5 6.5 6.5 6.5 5.8 6.5 6.6 6.5 6.6 6.5 6.5 6.5 6.5 6.5 6.5 6.4 6.6 7.0 6.8 6.5 6.5 6.5 6.5 6.5 6.5 6.5 6.5 6.5 6.5 6.5
4.9 5.4 8.1 8.9 8.4 8.0 8.0 8.1 8.1 8.3 7.9 6.9 6.9 6.6 6.7 6.5 6.3 6.5 6.5 6.5 6.5 6.5 6.6 6.8 6.5 6.5 6.5 6.5 6.5 6.5 6.5 6.5 6.5 6.8 6.5 6.5 6.5 6.5 6.5 6.5 6.5 6.5 6.5 6.5 6.5 6.5 6.5
5.3 7.8 9.1 9.1 8.6 7.9 7.7 7.9 8.1 8.1 8.0 7.1 7.1 6.7 6.9 6.7 6.9 6.5 6.5 6.5 6.5 6.5 6.5 6.5 6.5 6.5 6.5 6.5 6.5 6.5 6.5 6.5 6.5 6.5 6.5 6.5 6.5 6.5 6.5 6.5 6.5 6.5 6.5 6.5 6.5 6.5 6.5
6.6 9.2 9.3 8.6 8.5 8.3 8.1 7.9 7.9 8.0 8.0 7.6 7.6 7.3 6.9 6.8 6.6 6.5 6.5 6.5 6.5 6.5 6.6 6.6 6.5 6.5 6.5 6.5 6.1 6.1 6.5 6.5 6.5 6.5 6.5 6.5 6.5 6.5 6.5 6.5 6.5 6.5 6.5 6.5 6.5 6.5 6.5
8.5 9.2 9.3 9.0 8.8 8.6 8.3 8.0 7.7 8.0 7.8 7.3 7.3 7.1 6.5 6.5 6.5 6.5 6.5 6.5 6.5 6.5 6.5 6.8 6.7 6.5 6.2 5.0 5.0 5.1 6.0 6.5 6.6 6.5 6.5 6.5 6.5 6.5 6.5 6.5 6.5 6.5 6.5 6.5 6.5 6.5 6.5
9.3 9.2 9.3 9.3 9.4 9.0 8.9 8.2 8.0 7.8 8.0 7.0 7.0 7.2 6.5 6.5 6.7 6.6 6.5 6.5 6.5 6.4 6.6 6.4 5.9 5.0 5.4 6.1 6.5 6.5 6.5 6.5 6.5 6.5 6.5 6.5 6.5 6.5 6.5 6.5 6.5 6.5 6.5 6.5 6.5 6.5 6.5
9.2 9.3 9.1 9.3 9.4 8.5 8.9 8.6 8.0 7.7 8.1 7.4 6.8 7.1 6.9 6.6 6.5 6.7 6.7 6.8 6.5 6.5 6.5 4.9 3.1 4.0 4.8 6.5 6.5 6.5 6.5 6.5 6.5 6.5 6.5 6.5 6.5 6.5 6.5 6.5 6.5 6.5 6.5 6.5 6.5 6.5 6.5
9.1 9.2 9.2 9.3 9.4 8.3 7.8 7.9 7.9 7.9 8.0 8.4 6.9 7.7 7.3 6.6 6.8 7.2 6.6 6.6 6.5 5.7 6.5 4.9 4.8 4.6 5.4 6.5 6.5 6.5 6.5 6.5 6.5 6.5 6.5 6.5 6.5 6.5 6.5 6.5 6.5 6.5 6.4 6.3 6.5 6.5 6.4
9.2 9.3 9.2 9.2 9.4 8.5 7.9 7.9 8.3 8.0 8.0 8.0 7.0 7.8 7.0 6.8 6.4 7.6 7.7 7.1 6.6 6.5 6.5 5.1 5.9 6.1 6.5 6.5 6.5 6.5 6.5 6.5 6.5 6.5 6.5 6.5 6.5 6.5 6.5 6.5 6.5 6.1 6.5 6.5 6.6 6.9 6.5
9.2 9.3 8.7 9.1 9.4 9.3 8.4 8.1 8.4 8.4 8.1 8.2 6.9 7.9 7.9 7.1 6.9 5.8 5.2 5.6 5.4 6.0 6.8 6.1 6.3 6.3 6.3 6.5 6.5 6.5 6.5 6.5 6.5 6.5 6.5 6.5 6.5 6.5 6.5 6.5 6.4 5.9 5.3 5.7 6.4 6.3 6.1
Wind_Speed
17 18 18 18 18 18 19 21 22 23 25 26 26 26 26 24 23 21 17 14 14 14 14 13 13 12 7 5 3 9 14 13 9 6 5 6 8 8 7 2 2 6 3 3 6 3 6
18 18 18 18 19 20 20 21 21 21 22 24 25 26 25 25 24 23 21 19 16 14 13 13 13 11 4 7 3 8 6 4 8 9 4 5 6 9 4 3 2 6 5 3 4 4 1
16 17 18 19 18 19 20 21 22 23 24 26 27 28 27 27 27 24 22 20 20 18 16 12 10 5 6 6 1 6 8 1 1 4 4 4 6 4 6 1 4 1 3 6 9 7 3
17 18 19 20 21 21 21 21 21 22 24 25 27 27 29 30 30 28 24 22 20 15 13 11 8 6 5 2 2 4 7 2 4 2 1 2 5 2 3 4 3 4 4 4 5 11 6
17 18 18 19 20 21 21 21 21 22 23 24 26 27 28 28 29 29 26 21 12 7 5 4 4 4 4 2 1 4 4 4 6 2 2 2 3 1 3 3 4 6 5 8 3 11 6
17 18 19 19 18 19 21 21 20 20 22 23 24 25 29 31 32 30 31 17 3 2 4 5 4 3 3 1 3 4 3 4 2 3 3 3 3 2 3 4 5 2 5 6 6 8 9
16 17 16 18 19 20 20 21 22 22 23 23 24 25 27 30 30 26 15 1 4 1 3 5 3 5 2 4 3 3 2 4 3 4 4 1 3 7 9 8 11 2 5 9 5 5 6
16 17 19 19 20 21 23 24 23 23 24 24 24 25 27 30 31 21 9 4 2 2 9 5 5 4 1 0 2 4 5 3 4 5 5 2 9 2 4 3 3 5 7 8 1 4 1
20 21 21 22 24 24 24 24 26 26 26 27 26 25 25 29 32 6 4 3 1 3 6 3 2 2 3 2 3 2 5 2 2 6 7 7 2 3 2 1 2 4 6 6 3 3 9
20 21 22 23 25 25 25 26 27 27 27 29 26 27 24 32 3 5 2 3 3 2 4 5 4 4 4 1 3 1 2 1 4 4 3 6 3 1 1 4 4 3 4 4 4 5 4
22 22 22 23 24 25 25 26 27 27 27 29 29 28 23 18 7 5 3 4 3 3 7 2 4 3 4 3 2 3 2 3 5 2 2 4 5 3 5 3 1 1 3 3 1 4 5
21 23 24 24 24 25 26 26 26 26 27 27 28 26 23 5 3 2 4 3 3 2 8 2 4 3 4 6 5 4 3 3 2 2 5 1 2 3 3 4 3 5 3 4 3 2 3
20 22 23 24 25 25 25 27 27 27 27 28 30 32 16 9 3 4 6 3 4 5 2 3 2 3 3 5 6 6 5 5 5 2 6 4 3 3 2 4 2 0 2 2 2 1 6
21 22 23 24 25 25 26 28 28 28 27 29 33 35 9 9 7 5 2 3 7 7 9 4 1 3 5 3 4 5 3 4 11 3 2 4 5 8 7 3 2 6 2 3 5 3 4
21 22 23 24 25 26 28 29 29 29 30 30 30 5 5 3 4 1 2 4 5 4 4 8 9 7 13 3 1 3 7 4 2 9 7 4 6 3 5 2 1 5 4 1 1 5 3
22 23 23 24 24 25 27 28 28 29 30 33 9 5 3 5 4 2 2 8 10 9 7 3 6 8 12 8 2 4 4 4 2 5 6 4 4 2 4 1 4 0 1 2 1 4 6
23 23 23 23 24 25 26 28 30 28 29 35 2 5 2 3 2 3 4 6 9 4 3 2 4 10 9 4 4 5 5 2 2 3 3 4 3 3 4 8 8 4 3 5 1 2 4
22 25 26 25 25 25 25 27 27 30 29 10 3 4 3 1 3 3 5 5 5 1 4 1 2 5 5 5 4 4 5 3 7 3 3 5 5 4 6 4 4 1 6 6 4 4 4
26 26 27 27 26 25 24 25 24 25 26 6 4 6 3 2 4 5 11 17 9 3 1 2 3 2 2 2 5 2 4 4 4 1 4 1 3 4 3 1 4 1 4 7 5 2 5
27 28 29 28 26 24 23 22 20 22 22 7 3 4 2 3 4 5 9 11 9 3 2 1 2 0 1 3 7 3 3 3 5 5 5 1 4 6 11 14 8 7 7 9 12 4 5
28 29 30 30 29 27 22 21 20 21 20 4 3 4 5 4 6 11 11 6 7 7 3 4 2 8 7 4 4 6 9 7 5 6 5 4 6 8 14 17 17 20 20 12 20 27 15
30 30 32 31 28 27 24 21 18 18 18 2 4 4 3 7 12 13 11 9 16 17 16 11 7 12 9 10 13 12 14 7 3 2 6 4 4 4 7 13 17 17 16 18 21 25 24
31 32 33 33 30 24 23 23 17 15 12 3 2 4 5 5 6 7 5 9 15 15 7 13 13 14 11 11 5 8 7 9 7 8 11 6 4 3 10 6 6 8 12 16 8 15 9
31 31 32 32 29 26 23 23 19 14 12 3 4 5 5 11 8 7 12 18 15 11 15 12 11 11 2 3 4 6 9 13 13 15 11 7 5 1 5 3 5 7 2 1 3 6 6
32 31 30 30 30 29 26 23 23 18 13 2 3 3 3 8 7 14 15 16 13 10 7 11 4 3 5 3 4 5 3 3 5 6 8 3 3 3 3 4 9 11 3 2 3 3 5
31 31 29 29 30 30 27 24 24 21 13 3 3 4 3 6 4 8 9 9 14 12 11 2 2 0 0 0 2 3 5 12 4 2 4 5 2 2 2 4 5 2 4 3 3 4 7
30 31 28 27 30 29 26 22 20 15 11 5 3 7 3 6 10 13 10 7 5 5 4 5 3 1 1 2 3 5 8 4 3 4 6 2 3 11 9 5 8 3 6 4 1 2 6
30 31 28 25 27 25 24 21 20 17 14 9 4 11 4 5 10 13 16 16 9 7 7 2 4 1 2 2 3 3 2 4 1 4 6 7 7 4 4 5 9 5 3 4 2 3 3
30 31 28 24 25 23 22 22 19 20 15 14 4 8 8 5 9 13 16 16 18 19 11 5 6 7 4 4 2 1 3 1 4 7 3 1 6 3 7 6 2 5 2 4 3 1 2
Wind_Direction
27 25 23 24 23 23 20 15 10 8 5 3 1 358 353 346 340 332 324 317 308 304 308 309 320 320 320 232 247 6 353 338 325 315 276 284 264 247 268 268 88 249 143 34 53 42 300
24 23 21 20 20 16 13 11 8 5 3 1 359 354 350 346 338 332 325 316 303 290 288 298 310 313 224 260 110 6 353 34 358 338 338 313 326 320 293 28 251 3 40 148 160 195 227
24 19 17 12 15 14 11 7 3 1 359 359 356 351 347 343 339 333 323 311 303 296 287 279 285 275 256 258 77 350 337 102 37 28 323 29 319 310 354 155 41 349 263 194 205 187 220
16 12 9 7 4 3 1 360 359 359 357 355 352 349 345 342 338 330 323 316 310 299 279 274 277 282 262 120 288 24 347 197 6 53 101 266 315 128 333 125 186 232 230 262 118 163 149
6 3 3 2 358 355 354 353 352 351 350 349 346 343 341 339 337 327 317 317 307 318 238 233 236 224 290 135 244 360 29 339 291 218 218 220 284 13 173 213 249 204 243 204 181 188 135
358 357 354 351 351 348 347 346 343 344 342 340 339 338 338 338 339 331 322 305 284 283 234 211 260 295 153 46 5 320 30 288 303 283 229 230 200 210 221 186 220 227 241 250 223 207 203
355 352 351 347 345 343 342 341 340 338 336 335 334 334 336 333 338 333 331 21 337 234 346 241 290 277 100 353 126 188 13 305 223 229 223 178 209 216 215 221 283 0 275 266 286 170 201
10 6 358 353 349 347 344 341 338 335 335 334 331 333 335 332 332 319 319 49 84 278 302 201 258 272 103 146 252 129 340 247 188 242 133 167 231 47 57 13 329 287 274 270 88 125 181
11 7 4 0 357 355 355 352 349 344 340 338 335 332 333 331 324 307 65 42 325 272 276 204 179 244 96 276 327 77 339 47 276 261 207 232 61 73 37 294 306 247 240 279 305 295 219
12 9 5 2 359 358 356 355 354 352 347 341 338 333 334 335 319 338 72 347 275 266 287 183 192 162 174 151 249 45 3 310 200 242 336 253 72 114 147 244 192 255 8 29 4 3 258
4 2 2 1 357 356 355 354 353 351 348 345 341 334 336 324 307 311 29 341 306 252 315 95 148 108 119 240 116 167 136 167 268 223 128 239 158 157 193 191 129 172 29 44 329 256 315
359 357 355 353 351 350 350 349 351 349 346 346 341 336 337 342 257 16 346 312 251 268 251 142 125 168 213 182 193 136 216 207 46 272 222 303 35 334 22 62 23 141 184 186 198 246 267
358 355 353 347 346 346 346 346 347 346 346 339 333 323 320 296 289 343 319 258 288 225 242 164 193 183 221 214 195 187 190 189 198 210 219 144 172 107 156 135 107 266 255 324 235 250 241
357 355 353 348 349 348 345 344 344 340 339 338 329 314 266 234 320 333 237 231 245 272 290 69 8 221 229 141 210 186 244 257 207 137 289 236 274 172 169 205 156 185 256 189 278 282 298
352 352 351 347 348 347 346 345 345 342 340 335 326 300 277 80 129 207 243 219 246 345 10 350 326 263 285 86 322 233 225 269 53 188 192 227 212 114 183 107 179 156 196 143 177 228 269
349 349 346 344 345 345 345 345 343 342 341 333 325 297 264 109 139 211 207 244 269 298 342 257 281 266 282 278 199 215 333 14 67 12 24 340 287 172 117 97 264 173 339 100 262 229 241
341 339 338 340 342 344 343 344 348 344 341 326 270 304 59 95 204 226 229 232 266 288 20 288 309 291 281 287 262 252 232 282 45 107 3 343 218 134 139 201 177 153 225 229 254 218 227
339 339 340 341 342 340 341 342 346 353 348 345 302 283 105 247 276 239 236 268 340 31 60 269 20 263 266 320 279 250 246 208 68 127 15 21 5 275 215 79 57 101 208 175 172 211 246
338 336 336 338 341 338 338 340 347 347 358 330 288 275 168 185 256 252 265 270 289 328 30 24 274 288 30 279 287 257 312 18 21 359 153 47 237 295 211 89 17 253 209 225 253 154 229
336 332 332 332 327 331 333 337 342 345 347 343 288 300 206 192 275 298 301 288 294 84 264 62 287 322 275 243 206 280 273 227 179 166 193 299 244 226 267 280 296 257 225 230 223 222 223
330 329 328 323 324 317 324 332 333 334 337 338 268 260 323 285 288 317 303 313 298 282 189 172 230 239 245 264 275 237 242 238 190 223 179 172 247 222 253 270 272 267 268 235 217 229 234
326 325 325 322 319 322 320 322 328 330 336 253 288 310 331 308 307 300 294 289 295 286 292 292 223 264 261 262 252 277 292 240 262 168 159 208 266 270 266 262 254 271 276 254 243 241 242
322 319 322 320 321 320 322 323 315 324 346 277 322 303 305 297 286 277 287 291 294 295 272 297 308 317 282 270 286 300 283 275 252 168 194 188 218 244 275 297 345 283 246 244 250 241 233
316 315 317 317 317 317 316 317 305 306 312 271 279 291 260 281 297 286 282 294 294 298 301 296 305 285 0 342 278 251 235 248 245 243 204 192 187 231 284 350 247 235 183 1 285 294 272
309 309 312 315 315 313 311 311 306 300 298 277 275 265 265 276 266 286 289 300 300 296 272 284 312 4 329 330 297 277 261 254 252 231 227 154 130 256 257 235 292 293 98 96 57 308 16
302 306 308 313 311 312 305 305 302 298 287 293 275 264 266 298 225 300 313 301 295 286 289 175 118 0 16 327 266 276 287 277 233 175 45 165 204 245 244 241 255 213 168 175 156 263 334
299 303 304 310 311 317 310 303 304 301 276 269 266 266 263 267 265 256 264 277 327 322 277 288 158 208 35 247 250 253 250 243 231 217 177 165 214 222 235 257 280 93 145 170 179 276 322
297 300 298 302 307 313 315 304 306 307 283 279 266 268 259 277 280 261 272 277 285 263 265 270 309 50 163 216 260 277 278 265 323 235 176 179 178 197 191 221 264 140 106 204 82 344 341
296 295 295 294 297 304 309 307 303 303 299 288 274 270 294 248 271 280 267 254 250 251 262 217 262 262 226 239 268 306 299 280 239 270 138 292 191 197 199 221 95 182 114 116 110 201 312